EW2082 Weather Reports


time (UTC)temp
C
wind
direction
speed
KPH
gust
KPH
rain 1hr
cm
rain 24hr
cm
rain mn
cm
humidity
%
barometer
mb
20260508013004 20 330 0.0 4.8 0.00 0.00 0.00 71 1012.4
20260508011005 21 28 4.8 6.4 0.00 0.00 0.00 68 1012.3
20260508010006 21 29 0.0 9.7 0.00 0.00 0.00 67 1012.4
20260508005004 21 345 0.0 11.3 0.00 0.00 0.00 64 1012.3
20260508003005 21 302 4.8 9.7 0.00 0.00 0.00 65 1012.3
20260508002004 22 280 0.0 9.7 0.00 0.00 0.00 65 1012.2
20260508001004 22 344 0.0 6.4 0.00 0.00 0.00 63 1012.3
20260508000004 22 307 3.2 8.0 0.00 0.00 0.00 67 1012.3
20260507235004 22 274 0.0 8.0 0.00 0.00 0.00 68 1012.5
20260507234004 22 304 0.0 6.4 0.00 0.00 0.00 68 1012.4
20260507233004 22 356 1.6 9.7 0.00 0.00 0.00 66 1012.4
20260507232004 23 17 0.0 8.0 0.00 0.00 0.00 65 1012.5
20260507231003 23 294 0.0 6.4 0.00 0.00 0.00 64 1012.5
20260507224004 23 345 1.6 8.0 0.00 0.00 0.00 63 1012.5
20260507223004 23 10 0.0 6.4 0.00 0.00 0.00 62 1012.6
20260507222004 23 253 3.2 8.0 0.00 0.00 0.00 62 1012.7
20260507220006 24 21 0.0 8.0 0.00 0.00 0.00 61 1013.0
20260507215004 24 325 0.0 9.7 0.00 0.00 0.00 59 1013.0
20260507214004 25 4 3.2 8.0 0.00 0.00 0.00 58 1013.2
20260507212004 25 340 1.6 3.2 0.00 0.00 0.00 59 1013.3
20260507211004 24 288 0.0 8.0 0.00 0.00 0.00 62 1013.4
20260507210005 25 300 6.4 6.4 0.00 0.00 0.00 59 1013.6
20260507205004 25 269 0.0 6.4 0.00 0.00 0.00 61 1013.7
20260507203004 25 21 0.0 3.2 0.00 0.00 0.00 58 1013.8
20260507202004 25 293 0.0 3.2 0.00 0.00 0.00 59 1013.7
20260507201003 25 4 0.0 8.0 0.00 0.00 0.00 58 1013.9
20260507200005 26 120 0.0 1.6 0.00 0.00 0.00 58 1014.0
20260507194003 25 143 0.0 0.0 0.00 0.00 0.00 55 1014.4
20260507193004 25 225 0.0 4.8 0.00 0.00 0.00 55 1014.4
20260507192003 25 108 0.0 3.2 0.00 0.00 0.00 56 1014.4
20260507191003 25 165 0.0 4.8 0.00 0.00 0.00 57 1014.6
20260507185003 25 172 0.0 1.6 0.00 0.00 0.00 58 1014.6
20260507184004 25 166 0.0 3.2 0.00 0.00 0.00 58 1014.7
20260507182004 25 79 0.0 3.2 0.00 0.00 0.00 58 1014.6
20260507181003 25 217 0.0 3.2 0.00 0.00 0.00 59 1014.7
20260507180004 24 125 0.0 4.8 0.00 0.00 0.00 60 1014.8
20260507175003 23 195 0.0 3.2 0.00 0.00 0.00 60 1014.7
20260507174003 23 150 0.0 0.0 0.00 0.00 0.00 63 1014.8
20260507173004 23 319 0.0 1.6 0.00 0.00 0.00 61 1014.8
20260507172004 23 162 0.0 3.2 0.00 0.00 0.00 61 1014.9
20260507171005 23 182 0.0 3.2 0.00 0.00 0.00 64 1014.8
20260507170005 23 103 0.0 3.2 0.00 0.00 0.00 63 1014.8
20260507165004 23 224 3.2 4.8 0.00 0.00 0.00 63 1014.9
20260507160006 21 8 0.0 0.0 0.00 0.00 0.00 69 1015.3
20260507155005 21 46 0.0 0.0 0.00 0.00 0.00 69 1015.3
20260507152004 20 43 0.0 0.0 0.00 0.00 0.00 73 1015.4
20260507151004 19 28 0.0 0.0 0.00 0.00 0.00 75 1015.3
20260507150005 19 28 0.0 0.0 0.00 0.00 0.00 77 1015.3
20260507145005 18 28 0.0 0.0 0.00 0.00 0.00 83 1015.2
20260507144004 17 28 0.0 0.0 0.00 0.00 0.00 83 1015.2
20260507141004 13 5 0.0 0.0 0.00 0.00 0.00 93 1015.0
20260507135005 12 5 0.0 0.0 0.00 0.00 0.00 93 1014.7
20260507134004 12 5 0.0 0.0 0.00 0.00 0.00 93 1014.6
20260507133005 12 5 0.0 0.0 0.00 0.00 0.00 93 1014.4
20260507132005 12 5 0.0 0.0 0.00 0.00 0.00 93 1014.5
20260507130006 12 5 0.0 0.0 0.00 0.00 0.00 92 1014.4
20260507124004 12 5 0.0 0.0 0.00 0.00 0.00 92 1014.3
20260507123004 12 5 0.0 0.0 0.00 0.00 0.00 92 1014.3
20260507122005 12 5 0.0 0.0 0.00 0.00 0.00 92 1014.3
20260507121004 12 5 0.0 0.0 0.00 0.00 0.00 92 1014.4
20260507120006 12 5 0.0 0.0 0.00 0.00 0.00 92 1014.4
20260507115005 12 5 0.0 0.0 0.00 0.00 0.00 92 1014.5
20260507114004 12 5 0.0 0.0 0.00 0.00 0.00 92 1014.6
20260507113005 12 5 0.0 0.0 0.00 0.00 0.00 92 1014.5
20260507112005 12 5 0.0 0.0 0.00 0.00 0.00 92 1014.6
20260507111005 12 5 0.0 0.0 0.00 0.00 0.00 92 1014.7
20260507105004 13 5 0.0 0.0 0.00 0.00 0.00 92 1014.9
20260507104004 13 5 0.0 0.0 0.00 0.00 0.00 92 1014.9
20260507103005 13 5 0.0 0.0 0.00 0.00 0.00 92 1014.9
20260507102006 13 5 0.0 0.0 0.00 0.00 0.00 92 1015.0
20260507101004 13 5 0.0 0.0 0.00 0.00 0.00 92 1015.0
20260507100005 13 5 0.0 0.0 0.00 0.00 0.00 91 1014.9
20260507093005 14 5 0.0 0.0 0.00 0.00 0.00 91 1015.2
20260507092005 14 5 0.0 0.0 0.00 0.00 0.00 90 1015.3
20260507091004 14 5 0.0 0.0 0.00 0.00 0.00 90 1015.4
20260507090005 14 5 0.0 0.0 0.00 0.00 0.00 90 1015.5
20260507085004 14 5 0.0 0.0 0.00 0.00 0.00 89 1015.5
20260507084004 14 5 0.0 0.0 0.00 0.00 0.00 88 1015.5
20260507083004 15 5 0.0 0.0 0.00 0.00 0.00 88 1015.5
20260507081003 15 5 0.0 0.0 0.00 0.00 0.00 87 1015.7
20260507075004 15 8 0.0 0.0 0.00 0.00 0.00 86 1015.9
20260507073004 15 233 0.0 0.0 0.00 0.00 0.00 89 1016.0
20260507072004 15 258 0.0 0.0 0.00 0.00 0.00 89 1016.1
20260507070010 15 258 0.0 1.6 0.00 0.00 0.00 90 1016.0
20260507065004 15 258 0.0 1.6 0.00 0.00 0.00 89 1016.0
20260507064004 15 258 0.0 1.6 0.00 0.00 0.00 89 1016.1
20260507063004 15 339 0.0 0.0 0.00 0.00 0.00 89 1016.2
20260507062004 15 339 0.0 0.0 0.00 0.00 0.00 89 1016.3
20260507061004 15 339 0.0 0.0 0.00 0.00 0.00 88 1016.2
20260507060004 15 339 0.0 1.6 0.00 0.00 0.00 88 1016.3
20260507055004 15 89 0.0 0.0 0.00 0.00 0.00 88 1016.1
20260507053005 15 82 0.0 1.6 0.00 0.00 0.00 86 1016.2
20260507052005 16 271 0.0 1.6 0.00 0.00 0.00 85 1016.2
20260507051003 16 253 0.0 0.0 0.00 0.00 0.00 84 1016.2
20260507050006 16 253 0.0 1.6 0.00 0.00 0.00 83 1016.1
20260507045005 16 254 0.0 3.2 0.00 0.00 0.00 83 1016.1
20260507044005 16 32 1.6 4.8 0.00 0.00 0.00 85 1016.1
20260507042005 16 303 1.6 6.4 0.00 0.00 0.00 86 1015.9
20260507041004 16 257 1.6 4.8 0.00 0.00 0.00 85 1015.8
20260507040005 16 281 0.0 1.6 0.00 0.00 0.00 85 1015.8
20260507035005 16 218 0.0 1.6 0.00 0.00 0.00 85 1015.6
20260507034005 16 357 0.0 3.2 0.00 0.00 0.00 84 1015.4
20260507033006 16 219 0.0 3.2 0.00 0.00 0.00 85 1015.3
20260507032004 16 267 0.0 6.4 0.00 0.00 0.00 84 1015.3
20260507030005 17 18 0.0 1.6 0.00 0.00 0.00 81 1015.0
20260507025004 17 257 0.0 3.2 0.00 0.00 0.00 78 1015.1
20260507024005 17 16 0.0 4.8 0.00 0.00 0.00 75 1014.8
20260507023004 17 329 0.0 4.8 0.00 0.00 0.00 72 1014.9
20260507021004 18 78 0.0 3.2 0.00 0.00 0.00 74 1014.8
20260507020005 18 15 0.0 4.8 0.00 0.00 0.00 71 1014.6
20260507015004 20 353 0.0 1.6 0.00 0.00 0.00 68 1014.6
20260507014005 20 286 0.0 3.2 0.00 0.00 0.00 68 1014.6